Regional Weather Roundup
Issued by NWS

Home | Current Version | Previous Version | Text Only | Print | Product List | Glossary Off
Versions: 1 2 3 4 5 6 7 8 9 10 11 12 13 14 15 16 17 18 19 20 21 22 23 24 25 26 27 28 29 30 31 32 33 34 35 36 37 38 39 40 41 42 43 44 45 46 47 48 49 50

000
ASUS43 KMKX 240200
RWRWI

WISCONSIN REGIONAL WEATHER ROUNDUP
NATIONAL WEATHER SERVICE MILWAUKEE/SULLIVAN WI
800 PM CST THU NOV 23 2017

NOTE: "FAIR" INDICATES FEW OR NO CLOUDS BELOW 12,000 FEET WITH NO
SIGNIFICANT WEATHER AND/OR OBSTRUCTIONS TO VISIBILITY.

WIZ001-002-006>008-014>016-023>028-240300-
NORTHWEST WISCONSIN

CITY           SKY/WX    TMP DP  RH WIND       PRES   REMARKS
SUPERIOR ARPT  PTCLDY    35  25  67 SW5       29.64F WCI  31
ASHLAND        CLOUDY    38  25  59 S8        29.65F WCI  32
HAYWARD        CLOUDY    38  23  55 S10       29.67F WCI  31
SIREN          PTCLDY    38  24  56 S10       29.67F WCI  31
CUMBERLAND     CLOUDY    36  23  60 S9        29.70F WCI  29
RICE LAKE      CLOUDY    37  24  60 SE7       29.73F WCI  31
CHETEK         CLOUDY    36  23  59 SE5       29.72F WCI  32
LADYSMITH      CLOUDY    37  23  58 S5        29.74F WCI  33
EAU CLAIRE     NOT AVBL
MENOMONIE      CLOUDY    35  24  63 E7        29.73F WCI  29
NEW RICHMOND   PTCLDY    37  24  59 S9        29.71F WCI  31
OSCEOLA        CLEAR     36  26  65 S9        29.73F WCI  29
$$

WIZ003>005-009-010-017-018-240300-
NORTH CENTRAL WISCONSIN

CITY           SKY/WX    TMP DP  RH WIND       PRES   REMARKS
MANITOWISH WTR CLOUDY    34  24  66 S7        29.69F WCI  28
ARBOR VITAE    PTCLDY    37  25  64 S12       29.70F WCI  29
WOODRUFF       PTCLDY    37  25  64 S12       29.70F WCI  29
RHINELANDER    CLOUDY    35  24  64 SW8       29.73F WCI  29
EAGLE RIVER    CLOUDY    33  22  61 SW5       29.71F WCI  29
LAND O LAKES   CLOUDY    34  24  65 SW6       29.72F WCI  29
PHILLIPS       CLOUDY    35  22  60 SW8       29.70F WCI  28
TOMAHAWK       CLOUDY    34  22  62 CALM      29.75F
MEDFORD        CLOUDY    34  23  65 S7        29.75F WCI  28
MERRILL        CLOUDY    34  23  64 S3        29.76F
$$

WIZ029-030-035-036-043>047-240300-
CENTRAL WISCONSIN

CITY           SKY/WX    TMP DP  RH WIND       PRES   REMARKS
WAUSAU         CLOUDY    33  23  66 S7        29.75F WCI  27
MOSINEE        PTCLDY    28  21  74 S5        29.79F WCI  23
MARSHFIELD     CLOUDY    34  22  61 S8        29.76F WCI  27
STEVENS POINT  CLEAR     24  18  80 CALM      29.82F
WAUPACA        CLEAR     30  20  67 CALM      29.86S
WAUTOMA        CLEAR     26  21  81 CALM      29.85F
WISC RAPIDS    CLEAR     30  21  69 S6        29.81F WCI  24
CAMP DOUGLAS   CLEAR     25  20  82 S5        29.81F WCI  19
$$

WIZ011>013-019>022-031-037>040-048>050-240300-
NORTHEAST WISCONSIN

CITY           SKY/WX    TMP DP  RH WIND       PRES   REMARKS
ANTIGO         CLOUDY    31  24  75 S8        29.77F WCI  23
SHAWANO        PTCLDY    31  22  69 CALM      29.83F
OCONTO         CLOUDY    26  20  79 SW3       29.84F
STURGEON BAY   CLEAR     33  22  63 S8        29.84F WCI  26
GREEN BAY      CLOUDY    33  25  72 S6        29.86R WCI  28
MANITOWOC      CLOUDY    31  23  72 SW5       29.88R WCI  26
APPLETON       CLEAR     30  19  64 SW7       29.85R WCI  23
CLINTONVILLE   CLOUDY    34  21  60 SW5       29.85R WCI  30
OSHKOSH        CLEAR     32  23  69 S6        29.87R WCI  26
$$

WIZ032>034-041-042-053>061-240300-
SOUTHWEST WISCONSIN

CITY           SKY/WX    TMP DP  RH WIND       PRES   REMARKS
LA CROSSE      CLEAR     39  25  57 S12       29.81F WCI  32
SPARTA         CLEAR     27  22  80 CALM      29.83F
VIROQUA        CLEAR     37  26  66 S8        29.82F WCI  30
BOSCOBEL       CLEAR     29  23  78 CALM      29.87F
PRAIRIE DU CHI CLEAR     33  23  68 SE3       29.86F
PLATTEVILLE    CLEAR     36  27  70 S6        29.87F WCI  31
$$

WIZ056-057-062-063-064-067-068-240300-
SOUTH CENTRAL WISCONSIN

CITY           SKY/WX    TMP DP  RH WIND       PRES   REMARKS
REEDSBURG      CLEAR     34  22  62 CALM      29.86S
BARABOO/DELLS  CLEAR     33  22  63 CALM      29.85F
LONE ROCK      NOT AVBL
MINERAL POINT  CLEAR     36  27  69 S7        29.86F WCI  30
MADISON        CLEAR     37  25  61 S3        29.87F
MIDDLETON      CLEAR     33  25  72 CALM      29.87F
WATERTOWN      CLEAR     30  24  77 CALM      29.88R
MONROE         CLEAR     34  25  69 S8        29.88F WCI  27
JANESVILLE     CLEAR     36  25  64 SW3       29.89S
$$

WIZ051-052-058>065-066-070>072-240300-
SOUTHEAST WISCONSIN

CITY           SKY/WX    TMP DP  RH WIND       PRES   REMARKS
MILWAUKEE      CLEAR     36  24  62 S5        29.89S WCI  32
WAUKESHA       CLEAR     34  21  60 SW3       29.90S
MILWAUKEE/TIMM CLEAR     34  19  55 S3        29.89F
RACINE         CLEAR     34  25  69 S5        29.91F WCI  30
BURLINGTON     CLEAR     29  27  92 CALM      29.89F
KENOSHA        CLEAR     34  24  67 S7        29.89F WCI  28
FOND DU LAC    CLEAR     30  21  69 CALM      29.88R
SHEBOYGAN      CLOUDY    29  24  82 SW5       29.87S WCI  24
WEST BEND      CLEAR     30  21  69 CALM      29.88S
JUNEAU         CLEAR     33  23  66 CALM      29.88S
$$

LSZ147-162-240300-
LAKE SUPERIOR

STATION/POSITION TIME  TEMP    WIND        PRES    WAVE
                       AIR SEA DIR/SP/G            HT/PER
                 (UTC) (F)     (DEG/KT/KT) (MB)    (FT/S)
DEVILS ISLAND    0100   37     150/  4/  5 1005.7F
SAXON HARBOR     0130   40     190/  5/ 13 1004.4F
$$

LMZ867-665-643>646-240300-
LAKE MICHIGAN

STATION/POSITION TIME  TEMP    WIND        PRES    WAVE
                       AIR SEA DIR/SP/G            HT/PER
                 (UTC) (F)     (DEG/KT/KT) (MB)    (FT/S)
N MID LAKE BUOY  0050   40 47  210/ 10/ 14 1011.8F   3/ 6
NORTHPORT PIER   0130   35     210/  2/  6 1010.5S
KEWAUNEE LAKESHO 0130   37     200/  7/  8 1010.4S
SHEBOYGAN LAKESH 0100   38     210/  6/  7 1012.0F
PORT WASHINGTON  0140   34     260/  3/  3 1012.9S
MILWAUKEE LAKESH 0130   40     220/  4/  5   N/A
S MID LAKE BUOY  0050   44 47  260/  8/ 10 1013.7F   2/ 4
KENOSHA   LAKESH 0100   40     220/  6/  7 1012.9
$$

TC  - TEMPERATURE IN CELSIUS
VSB - VISIBILITY IN STATUTE MILES
WCI - WIND CHILL INDEX
HX  - HEAT INDEX





USA.gov is the U.S. government's official web portal to all federal, state and local government web resources and services.